Find Starlink 37894

NORAD ID: 69966 Int'l Des: 2026-157 Owner: SPXS Country: US Constellation: starlink operational
LEOCIRCULAR

当前视图

正在加载3D地球...

About Starlink 37894

Starlink 37894 (NORAD 69966) is a starlink constellation satellite (v2 mini) launched Jul 9, 2026 by SPXS of US. It operates in LEO, CIRCULAR orbit with a mass of 575.00 kg.

即将过境

Passes for default location (London). Set your location on the main map for personalized predictions.

高度历史

Loading altitude history...

两行轨道根数

1 69966U 26157Z 26228.47083282 .00026569 00000-0 48372-3 0 9996
2 69966 53.1591 137.5754 0001667 87.0380 273.0820 15.49332975 5993
Epoch: Aug 16, 2026 • Age: 17 hours

当前状态

高度 419.0 km
远地点 / 近地点 N/A
速度 7.66 km/s
星下点 25.62°N, 122.47°E
发射日期 Jul 9, 2026
运行时间 0.1 years
类型 internet

技术详情

分类 Payload
质量 575.00 kg
干质量 530.00 kg
总质量 575.00 kg
长度 0.30 m
直径 4.10 m
跨度 29.00 m
形状 Box + pan
制造商 SPXS
平台类型 Starlink V2MO
阶段状态 In Orbit
所有者/国家 SPXS/US

Most Searched